Weather Roundup
Issued by NWS

Home | Current Version | Previous Version | Graphics & Text | Print | Product List | Glossary Off
Versions: 1 2 3 4 5 6 7 8 9 10 11 12 13 14 15 16 17 18 19 20 21 22 23 24 25 26 27 28 29 30 31 32 33 34 35 36 37 38 39 40 41 42 43 44 45 46 47 48 49 50

000
NZUS93 KARX 290159
HRRWXR

CURRENT HOURLY OBSERVATIONS ACROSS
MUCH OF THE UPPER MISSISSIPPI VALLEY
NATIONAL WEATHER SERVICE LA CROSSE WI
900 PM CDT THU APR 28 2016


...SOUTHEAST MINNESOTA...


CITY           SKY/WX    TMP DP  RH WIND       PRES   REMARKS
ROCHESTER      CLOUDY    40  39  97 NE8       30.06R FOG     WCI  34
ROCHESTER/MAYO CLOUDY    40  40 100 NE5       30.06R
WINONA         DRIZZLE   41  37  87 E5        30.08R
AUSTIN         CLOUDY    39  37  93 NE5       30.05R
ALBERT LEA     NOT AVBL
DODGE CENTER   CLOUDY    37  37 100 NE7       30.06R FOG     WCI  32
PRESTON        CLOUDY    39  37  90 E7        30.05R WCI  34
OWATONNA       CLOUDY    39  37  93 N5        30.08R
FARIBAULT      NOT AVBL
$$

...ELSEWHERE IN MINNESOTA...


CITY           SKY/WX    TMP DP  RH WIND       PRES   REMARKS
MINNEAPOLIS    LGT RAIN  40  37  89 VRB5      30.11R
INTNL FALLS    CLEAR     47  28  47 N5        30.14R
DULUTH         PTCLDY    38  25  59 E8        30.12R WCI  32
RED WING       LGT RAIN  39  37  93 E9        30.09R WCI  33
REDWOOD FALLS  CLOUDY    41  36  82 E7        30.11R
MANKATO        CLOUDY    41  36  81 NE7       30.09R
WORTHINGTON    CLOUDY    38  36  92 N7        30.09R WCI  33
FAIRMONT       CLOUDY    39  30  70 NE10      30.06S WCI  32
$$

...SOUTHWEST WISCONSIN...


CITY           SKY/WX    TMP DP  RH WIND       PRES   REMARKS
LA CROSSE      CLOUDY    42  37  82 E9        30.07R
PRAIRIE DU CHI LGT RAIN  42  38  88 CALM      30.04R
BOSCOBEL       LGT RAIN  42  40  92 E5        30.05R FOG
LONE ROCK      NOT AVBL
PLATTEVILLE    CLOUDY    41  40  96 NE7       30.01R
FORT MC COY    CLOUDY    39  37  94 NE5       30.07R
MAUSTON-NEW LI LGT RAIN  39  37  91 NW5       30.06R
VIROQUA        CLOUDY    39  38  97 NE7       30.05R WCI  34
WIS DELLS      CLOUDY    39  38  94 CALM      30.04R FOG
$$

...ELSEWHERE IN WISCONSIN...


CITY           SKY/WX    TMP DP  RH WIND       PRES   REMARKS
MILWAUKEE      CLOUDY    41  37  86 NE8       30.03R
MADISON        CLOUDY    40  37  89 E8        30.04R WCI  34
GREEN BAY      CLOUDY    43  34  70 N6        30.06S
EAU CLAIRE     NOT AVBL
BLACK RVR FLS  CLOUDY    37  37 100 NE5       30.07S WCI  34
MEDFORD        DRIZZLE   39  37  91 S8        30.05S WCI  33
WAUSAU         CLOUDY    39  35  86 E5        30.07R
WIS RAPIDS     CLOUDY    39  32  76 NE12      30.09R WCI  32
MARSHFIELD     LGT RAIN  40  36  86 E7        30.07R FOG
RICE LAKE      CLOUDY    42  36  77 S5        30.10R
$$

...NORTHEAST IOWA...


CITY           SKY/WX    TMP DP  RH WIND       PRES   REMARKS
WATERLOO       CLOUDY    45  42  89 NE8       30.02R
DUBUQUE        CLOUDY    42  42 100 NE9       30.01R FOG
DECORAH        NOT AVBL
MASON CITY     CLOUDY    42  40  92 N12       30.05R
CHARLES CITY   CLOUDY    43  43 100 NE7       30.04R
OELWEIN        CLOUDY    45  45 100 NE9       30.01R
$$

...ELSEWHERE IN IOWA...


CITY           SKY/WX    TMP DP  RH WIND       PRES   REMARKS
DES MOINES     CLOUDY    50  45  83 NW9       30.00R
IOWA CITY      MOCLDY    50  48  93 N8        29.99R
FORT DODGE     CLOUDY    45  39  81 N6        30.04R
MARSHALLTOWN   CLOUDY    48  46  93 NE8       30.00R
CEDAR RAPIDS   CLOUDY    47  47 100 NE8       29.98R FOG
$$

...NORTHERN ILLINOIS...


CITY           SKY/WX    TMP DP  RH WIND       PRES   REMARKS
CHICAGO-OHARE  CLOUDY    43  40  89 N8        29.99R
CHICAGO-MIDWAY CLOUDY    46  40  79 N9        29.99R
MOLINE         CLOUDY    53  49  86 E8        29.98R
ROCKFORD       CLOUDY    43  40  89 NE9       30.02R
PEORIA         CLOUDY    56  47  71 NW3       29.99R
$$

NOTE: "FAIR" INDICATES FEW OR NO CLOUDS BELOW 12,000 FEET WITH NO
SIGNIFICANT WEATHER AND/OR OBSTRUCTIONS TO VISIBILITY. WIND
SPEEDS ARE IN MILES-PER-HOUR.




USA.gov is the U.S. government's official web portal to all federal, state and local government web resources and services.